Notices

What's New in latest Release from April 7th, 2021:

- Updated Glossary, including Speed of Maximum Gust, and Total Hourly Precipitation

- Updated national and regional climate services offices contacts and prices information

- Addition of station inventory lists for 1981-2010, 1971-2000, and 1961-1990 Normals.

If you haven't already, please take our survey and provide feedback about our website: https://eccc.sondage-survey.ca/f/LanguageSelection.aspx?s=442ca660-fcf1-47c0-95a9-59707d6fd709

Hourly Data Report for August 13, 2017

TORONTO CITY
ONTARIO

43°40'00.000" N
79°24'00.000" W
112.50 m
6158355
71508
XTO

Download Data

Hourly Data (August 2017)
Hourly Data Report for August 13, 2017
TIME
LST
Temp Definition
°C
Dew Point Definition
°C
Rel Hum Definition
%
Precip. Amount Definition
mm

Wind Dir Definition
10's deg

Wind Spd Definition
km/h
Visibility Definition
km
Stn Press Definition
kPa
Hmdx Definition


Wind Chill Definition


Weather Definition


00:00 18.4 13.6 74 LegendMM LegendMM LegendMM   100.01     LegendNANA
01:00 18.2 13.6 75 LegendMM LegendMM LegendMM   100.06     LegendNANA
02:00 17.7 13.6 77 LegendMM LegendMM LegendMM   100.09     LegendNANA
03:00 17.4 13.4 78 LegendMM LegendMM LegendMM   100.12     LegendNANA
04:00 17.0 13.0 78 LegendMM LegendMM LegendMM   100.12     LegendNANA
05:00 16.1 13.0 82 LegendMM LegendMM LegendMM   100.17     LegendNANA
06:00 15.5 12.9 85 LegendMM LegendMM LegendMM   100.24     LegendNANA
07:00 17.7 13.0 74 LegendMM LegendMM LegendMM   100.27     LegendNANA
08:00 20.7 12.7 60 LegendMM LegendMM LegendMM   100.29     LegendNANA
09:00 22.2 12.3 54 LegendMM LegendMM LegendMM   100.32 25   LegendNANA
10:00 24.4 12.7 48 LegendMM LegendMM LegendMM   100.35 27   LegendNANA
11:00 23.3 13.1 53 LegendMM LegendMM LegendMM   100.36 26   LegendNANA
12:00 24.2 13.6 52 LegendMM LegendMM LegendMM   100.33 27   LegendNANA
13:00 24.3 12.1 46 LegendMM LegendMM LegendMM   100.32 27   LegendNANA
14:00 25.2 11.9 43 LegendMM LegendMM LegendMM   100.32 27   LegendNANA
15:00 25.0 10.1 39 LegendMM LegendMM LegendMM   100.31 26   LegendNANA
16:00 24.3 10.7 42 LegendMM LegendMM LegendMM   100.32 26   LegendNANA
17:00 24.4 11.6 45 LegendMM LegendMM LegendMM   100.28 26   LegendNANA
18:00 23.6 12.0 48 LegendMM LegendMM LegendMM   100.23 26   LegendNANA
19:00 22.1 12.3 54 LegendMM LegendMM LegendMM   100.21 25   LegendNANA
20:00 21.3 11.7 54 LegendMM LegendMM LegendMM   100.25     LegendNANA
21:00 20.3 13.1 63 LegendMM LegendMM LegendMM   100.27     LegendNANA
22:00 20.0 12.9 63 LegendMM LegendMM LegendMM   100.31     LegendNANA
23:00 19.2 12.9 67 LegendMM LegendMM LegendMM   100.29     LegendNANA

Notes on Data Quality.

Legend

  • E = Estimated
  • M = Missing
  • NA = Not Available*
  • [empty] = Indicates an unobserved value
Date modified: